Temp
1 2 2 1 1 1 1 1 1 1 1 1 1 1 1 1 0 1 1 1 1 1 1 1 1 1 1 0 0 0 0 0 0 0 0 0 1 1 2 2 1 1 1
0 1 1 1 1 1 1 1 1 1 1 1 1 1 1 1 0 0 1 1 1 0 0 0 -0 -0 0 0 -0 -0 -0 0 -0 -0 -0 -0 0 0 1 1 1 1 2
1 1 1 0 0 1 1 1 1 1 1 1 1 1 0 0 0 0 0 0 1 0 1 0 0 -0 0 -0 -0 -0 -0 -0 -0 -0 -0 -0 -0 -0 -0 -0 0 0 0
1 0 0 0 1 1 1 1 1 0 1 1 0 0 -0 0 0 0 -0 0 1 1 0 0 -0 -0 -0 -0 -0 -0 -0 -1 -0 -0 -0 -0 -1 -1 -1 -1 -1 -1 -1
1 0 0 1 1 1 1 1 1 1 1 0 0 -0 -0 -0 -0 0 1 -0 -0 0 1 1 -0 -1 -0 -1 -1 -1 -1 -1 -1 -1 -2 -2 -2 -2 -2 -2 -2 -3 -3
1 1 1 2 1 2 1 1 1 1 1 0 -0 -0 -0 -1 -0 0 0 -0 -0 -1 -1 -0 -0 -0 -1 -1 -1 -1 -1 -1 -2 -2 -2 -2 -2 -3 -3 -3 -4 -4 -4
2 1 1 2 1 2 1 1 1 1 0 0 -1 -1 -1 -1 -1 -0 0 -0 -0 -0 -1 -1 -1 -1 -1 -1 -1 -1 -2 -2 -3 -3 -3 -3 -4 -4 -4 -4 -5 -5 -5
2 1 1 2 1 1 1 1 1 0 0 0 -1 -1 -2 -2 -2 -2 -2 -1 -1 -2 -2 -2 -2 -2 -2 -2 -2 -2 -2 -3 -4 -4 -4 -4 -5 -5 -5 -6 -6 -6 -6
2 2 2 2 1 1 1 1 1 0 -0 -1 -1 -1 -2 -2 -2 -3 -3 -3 -2 -2 -3 -3 -3 -2 -2 -3 -3 -3 -3 -4 -5 -6 -6 -6 -6 -6 -6 -7 -7 -8 -8
2 2 1 1 1 1 0 1 0 -0 -1 -1 -1 -1 -2 -2 -2 -3 -2 -3 -3 -3 -3 -3 -3 -3 -3 -4 -4 -4 -4 -5 -6 -6 -6 -7 -7 -7 -8 -8 -9 -9 -10
2 2 1 1 1 1 1 0 0 -0 -2 -3 -3 -3 -3 -3 -3 -3 -3 -4 -3 -4 -4 -4 -4 -4 -4 -4 -5 -5 -5 -6 -7 -8 -8 -8 -9 -9 -9 -10 -10 -11 -12
2 2 1 1 1 0 0 -1 -1 -1 -1 -1 -2 -3 -4 -3 -3 -4 -4 -4 -5 -5 -6 -6 -6 -6 -5 -6 -6 -6 -6 -7 -8 -8 -9 -10 -10 -10 -11 -11 -12 -12 -12
3 2 1 1 1 -0 -0 -1 -1 -0 -1 -1 -1 -2 -2 -3 -3 -4 -5 -5 -5 -6 -6 -7 -6 -6 -7 -7 -7 -7 -7 -8 -9 -9 -10 -10 -11 -12 -12 -12 -12 -13 -13
2 1 1 2 1 0 -0 0 -0 -1 -1 -1 -2 -2 -3 -3 -4 -4 -5 -5 -5 -6 -6 -7 -8 -8 -8 -8 -9 -9 -8 -9 -10 -11 -11 -11 -12 -12 -12 -13 -13 -13 -13
2 1 2 1 1 0 0 -0 -1 -2 -2 -2 -2 -2 -2 -4 -5 -4 -5 -6 -6 -6 -6 -7 -8 -9 -10 -10 -10 -10 -10 -10 -11 -11 -12 -12 -12 -13 -13 -13 -13 -13 -14
2 2 2 1 1 1 0 -0 -0 -1 -2 -2 -3 -2 -3 -4 -5 -6 -6 -7 -7 -7 -7 -7 -8 -9 -10 -11 -12 -12 -12 -11 -11 -12 -12 -12 -13 -13 -13 -14 -14 -14 -14
2 2 2 2 1 1 0 -0 -1 -1 -2 -2 -2 -3 -4 -4 -5 -6 -7 -7 -8 -9 -8 -8 -9 -10 -11 -11 -12 -13 -13 -12 -11 -12 -13 -13 -13 -13 -14 -14 -14 -14 -14
2 2 2 2 1 0 -0 -1 -1 -2 -2 -2 -3 -4 -4 -5 -6 -6 -7 -7 -8 -9 -9 -9 -10 -11 -12 -12 -13 -13 -14 -13 -12 -13 -13 -13 -13 -14 -14 -14 -15 -15 -15
2 2 2 1 1 0 -0 -1 -2 -2 -2 -3 -3 -4 -5 -6 -6 -7 -8 -8 -9 -10 -10 -11 -11 -12 -12 -13 -13 -13 -13 -13 -13 -13 -13 -13 -14 -14 -15 -15 -15 -15 -15
2 2 2 1 1 -0 -1 -2 -2 -2 -3 -4 -5 -5 -5 -6 -7 -7 -8 -9 -10 -10 -11 -11 -11 -12 -12 -13 -13 -13 -14 -14 -13 -13 -14 -14 -15 -15 -15 -15 -15 -15 -15
2 2 1 0 -0 -2 -3 -3 -3 -4 -4 -5 -5 -5 -6 -7 -8 -8 -9 -9 -10 -11 -11 -12 -12 -12 -12 -13 -14 -14 -14 -14 -14 -14 -14 -14 -14 -15 -15 -15 -15 -16 -16
2 1 0 -0 -1 -2 -2 -3 -4 -4 -4 -5 -5 -6 -7 -8 -9 -9 -9 -10 -10 -11 -11 -12 -12 -12 -12 -13 -13 -14 -14 -14 -14 -14 -15 -15 -15 -15 -15 -16 -16 -16 -16
1 0 -0 -1 -1 -2 -3 -4 -4 -4 -5 -5 -6 -7 -8 -8 -9 -9 -10 -10 -10 -11 -12 -12 -12 -12 -13 -13 -14 -14 -14 -15 -15 -15 -15 -15 -15 -16 -15 -16 -16 -17 -16
0 -0 -1 -2 -2 -3 -3 -4 -4 -5 -5 -6 -7 -8 -9 -9 -9 -10 -10 -10 -10 -11 -11 -12 -13 -13 -13 -14 -14 -14 -15 -15 -15 -15 -16 -16 -16 -16 -16 -16 -16 -16 -16
-1 -1 -2 -2 -3 -3 -4 -4 -5 -6 -7 -7 -8 -9 -9 -10 -10 -11 -11 -11 -11 -11 -11 -12 -14 -14 -14 -13 -14 -15 -15 -15 -15 -15 -16 -16 -16 -16 -16 -16 -16 -16 -17
-1 -2 -3 -4 -4 -5 -5 -6 -7 -7 -8 -9 -9 -9 -10 -10 -11 -11 -11 -12 -12 -12 -13 -13 -14 -14 -15 -14 -15 -15 -15 -15 -15 -16 -16 -17 -16 -16 -16 -16 -16 -17 -17
Height
3163 3164 3165 3166 3167 3169 3169 3169 3170 3171 3171 3171 3170 3170 3169 3168 3165 3167 3165 3163 3162 3160 3158 3156 3155 3156 3154 3152 3152 3150 3149 3148 3147 3146 3145 3144 3142 3141 3139 3139 3140 3139 3139
3162 3163 3163 3164 3166 3167 3168 3168 3169 3170 3170 3169 3168 3168 3168 3167 3163 3160 3163 3161 3159 3157 3155 3152 3151 3149 3148 3148 3147 3146 3145 3144 3143 3141 3140 3138 3137 3135 3134 3132 3131 3130 3129
3160 3160 3161 3163 3164 3165 3166 3167 3167 3167 3167 3167 3166 3165 3165 3165 3164 3161 3152 3156 3156 3154 3151 3149 3148 3146 3145 3143 3142 3142 3140 3138 3137 3135 3133 3131 3129 3127 3126 3124 3123 3122 3121
3157 3159 3160 3161 3162 3163 3164 3165 3165 3165 3165 3165 3164 3163 3161 3161 3160 3158 3157 3148 3146 3147 3148 3147 3145 3143 3141 3139 3137 3135 3133 3132 3130 3128 3125 3123 3120 3118 3115 3112 3110 3110 3109
3155 3156 3158 3159 3159 3161 3162 3163 3163 3162 3162 3162 3161 3159 3157 3157 3156 3153 3153 3150 3147 3141 3140 3140 3140 3139 3137 3135 3133 3131 3128 3126 3123 3119 3116 3114 3112 3110 3107 3104 3101 3098 3096
3152 3154 3155 3156 3158 3158 3160 3160 3160 3160 3159 3158 3156 3154 3153 3153 3152 3148 3147 3145 3144 3144 3138 3135 3133 3132 3131 3130 3129 3126 3123 3120 3116 3112 3108 3105 3103 3100 3098 3096 3094 3091 3088
3150 3151 3152 3154 3156 3156 3157 3157 3157 3156 3155 3155 3152 3150 3147 3144 3145 3142 3142 3140 3137 3136 3135 3134 3131 3126 3124 3122 3119 3116 3115 3114 3109 3104 3101 3097 3094 3092 3089 3086 3084 3081 3078
3148 3149 3150 3152 3154 3153 3153 3153 3153 3151 3149 3151 3148 3145 3143 3140 3136 3136 3135 3135 3133 3129 3127 3125 3125 3122 3119 3115 3111 3106 3103 3102 3101 3097 3093 3090 3086 3083 3080 3077 3074 3071 3068
3145 3147 3148 3148 3150 3149 3148 3150 3149 3146 3144 3143 3143 3141 3138 3138 3133 3127 3126 3125 3124 3125 3123 3120 3114 3111 3109 3108 3105 3099 3096 3093 3089 3086 3085 3081 3077 3074 3071 3067 3063 3059 3056
3142 3142 3143 3144 3144 3146 3142 3143 3143 3142 3139 3134 3133 3135 3132 3131 3129 3127 3121 3116 3113 3111 3110 3109 3109 3105 3100 3096 3092 3087 3087 3086 3081 3076 3074 3071 3067 3064 3060 3056 3052 3048 3044
3138 3139 3137 3139 3140 3139 3137 3134 3134 3130 3131 3130 3127 3123 3122 3122 3121 3120 3119 3115 3108 3104 3100 3095 3093 3093 3092 3088 3084 3080 3077 3076 3073 3068 3065 3061 3057 3053 3049 3045 3041 3038 3034
3133 3134 3134 3132 3133 3132 3130 3125 3122 3123 3121 3121 3117 3114 3112 3113 3111 3109 3106 3105 3104 3103 3096 3089 3085 3083 3081 3079 3075 3072 3070 3068 3065 3060 3057 3053 3048 3044 3040 3036 3032 3028 3023
3127 3128 3128 3127 3126 3122 3120 3120 3118 3116 3115 3113 3108 3106 3107 3106 3104 3103 3101 3099 3095 3094 3093 3090 3085 3079 3074 3069 3064 3061 3062 3060 3056 3052 3048 3044 3040 3035 3030 3026 3022 3017 3012
3122 3122 3121 3119 3119 3117 3115 3114 3113 3111 3108 3105 3103 3101 3099 3099 3096 3093 3092 3089 3086 3085 3083 3080 3076 3071 3066 3061 3057 3053 3051 3050 3047 3043 3039 3034 3030 3026 3021 3017 3012 3007 3002
3115 3115 3114 3113 3113 3112 3109 3108 3106 3103 3101 3099 3096 3093 3091 3090 3088 3086 3082 3080 3078 3074 3072 3071 3067 3064 3061 3055 3051 3047 3044 3042 3039 3034 3030 3026 3022 3017 3013 3009 3004 2999 2992
3109 3108 3108 3107 3106 3104 3102 3100 3098 3094 3092 3090 3089 3085 3082 3081 3077 3076 3074 3071 3068 3063 3058 3058 3057 3055 3053 3048 3042 3038 3034 3033 3030 3026 3021 3016 3012 3008 3004 3000 2995 2990 2983
3103 3102 3101 3100 3098 3096 3093 3092 3090 3087 3083 3081 3079 3076 3074 3072 3068 3067 3064 3061 3059 3056 3050 3049 3046 3044 3042 3037 3033 3029 3025 3022 3020 3016 3012 3008 3004 2999 2996 2992 2987 2981 2974
3095 3094 3093 3092 3090 3087 3085 3083 3081 3078 3075 3072 3071 3068 3066 3062 3060 3058 3055 3052 3049 3046 3041 3038 3037 3034 3032 3028 3024 3021 3018 3014 3011 3008 3004 2999 2996 2991 2988 2985 2979 2973 2966
3088 3087 3085 3083 3081 3078 3076 3075 3072 3069 3066 3063 3063 3060 3056 3053 3052 3050 3046 3042 3038 3035 3032 3028 3025 3024 3020 3018 3014 3010 3007 3004 3001 2998 2994 2990 2986 2982 2979 2976 2971 2965 2959
3081 3079 3076 3072 3070 3068 3067 3065 3062 3061 3058 3057 3053 3051 3048 3045 3043 3041 3037 3033 3030 3027 3024 3020 3016 3014 3011 3009 3005 3001 2997 2994 2992 2988 2985 2982 2979 2975 2971 2967 2963 2957 2951
3072 3069 3066 3064 3062 3060 3059 3057 3055 3052 3050 3048 3045 3042 3039 3037 3035 3032 3028 3025 3021 3017 3014 3011 3006 3002 2999 2998 2995 2992 2987 2985 2983 2980 2978 2974 2970 2967 2963 2959 2955 2949 2943
3064 3061 3059 3057 3054 3053 3050 3047 3045 3042 3040 3039 3037 3034 3031 3028 3025 3022 3019 3015 3012 3007 3004 3001 2996 2992 2989 2986 2984 2981 2978 2975 2973 2972 2967 2965 2961 2957 2955 2951 2947 2942 2937
3053 3052 3050 3048 3045 3043 3041 3039 3037 3034 3032 3030 3027 3024 3021 3019 3016 3012 3007 3004 3000 2997 2993 2989 2982 2979 2977 2976 2974 2969 2966 2964 2962 2962 2958 2955 2953 2948 2946 2943 2940 2935 2930
3045 3043 3041 3039 3037 3036 3032 3030 3028 3026 3024 3021 3018 3015 3012 3009 3005 3000 2996 2992 2989 2985 2981 2975 2970 2966 2963 2962 2960 2956 2955 2954 2953 2952 2949 2944 2945 2940 2938 2936 2932 2929 2924
3038 3036 3034 3032 3029 3025 3023 3022 3021 3018 3015 3013 3011 3007 3004 3000 2995 2990 2984 2978 2974 2970 2966 2959 2954 2950 2948 2947 2946 2945 2944 2943 2942 2942 2940 2936 2935 2932 2929 2928 2925 2921 2917
3030 3028 3025 3023 3021 3017 3016 3015 3013 3010 3007 3004 3002 2999 2995 2990 2985 2979 2971 2963 2955 2952 2945 2940 2935 2933 2932 2931 2931 2931 2933 2931 2932 2931 2932 2928 2926 2923 2921 2921 2918 2914 2910
Wind_Speed
18 16 9 8 7 6 5 2 1 2 1 2 4 6 9 10 16 14 16 19 21 23 21 22 22 22 21 21 22 23 24 24 23 24 25 26 27 29 32 32 30 30 30
20 17 10 9 8 8 7 5 6 5 3 4 5 7 9 12 18 25 20 20 21 22 21 25 27 27 25 24 24 24 27 27 26 27 28 29 30 32 33 34 35 38 39
18 13 13 11 11 11 9 8 8 7 7 7 8 9 11 16 18 22 29 27 27 24 24 25 26 26 27 27 26 27 28 28 29 31 33 34 35 36 36 37 39 40 42
16 16 14 13 13 11 11 11 11 10 10 11 11 13 18 21 24 26 27 32 31 29 25 25 23 26 27 28 29 30 31 31 33 35 38 40 41 42 44 46 47 47 48
17 15 15 14 13 12 14 13 14 13 12 14 15 17 20 25 27 28 26 21 23 30 31 29 26 26 29 29 29 31 32 34 38 40 41 41 41 42 44 46 49 52 54
17 16 15 14 12 15 16 16 16 16 17 17 20 24 25 26 28 31 25 24 25 21 27 30 30 30 29 29 29 32 34 36 39 41 41 41 43 45 46 48 50 52 54
15 15 16 13 15 17 18 19 20 19 22 23 23 26 30 33 32 31 28 32 29 27 25 26 27 31 32 32 34 37 37 35 36 39 41 43 44 45 47 50 52 54 55
13 15 17 17 18 22 24 23 21 24 27 26 28 29 27 32 33 33 34 32 29 29 30 30 28 28 31 34 36 41 42 39 36 38 40 41 43 45 47 49 51 52 53
17 16 18 22 21 24 29 28 27 29 31 33 31 32 31 31 35 35 36 34 31 28 29 31 34 34 34 33 35 41 41 41 41 39 39 40 42 44 46 48 50 51 51
21 23 23 22 23 26 31 32 32 32 35 38 38 36 36 37 40 34 36 35 37 38 37 34 33 33 35 39 42 46 44 41 39 41 41 42 44 44 46 46 48 48 48
22 23 26 27 28 32 32 39 36 36 37 38 40 42 42 41 31 30 29 29 38 39 40 42 40 38 37 41 42 45 46 43 38 41 40 41 43 43 44 45 45 45 46
24 26 30 28 30 32 34 34 38 36 38 40 49 48 48 38 32 32 33 36 32 32 35 39 42 44 44 43 44 46 45 41 38 40 39 40 41 41 41 42 43 43 44
23 22 29 32 38 49 40 36 28 35 43 40 44 43 38 33 32 31 33 37 34 31 33 34 38 42 45 46 47 49 45 38 36 37 38 39 39 38 39 41 40 41 43
22 20 30 33 33 28 29 30 32 33 36 37 41 35 28 31 34 31 35 37 33 31 32 34 35 38 41 43 47 49 48 38 36 36 37 38 38 37 39 38 38 40 42
23 27 31 29 31 28 29 32 34 33 30 31 31 32 30 26 32 38 33 32 33 34 34 34 36 36 37 40 44 47 45 39 35 34 35 36 35 36 36 33 37 38 42
28 28 30 32 31 30 30 32 31 34 42 34 38 40 33 37 33 31 32 31 33 36 40 37 36 37 35 37 41 44 44 39 34 34 35 37 36 36 35 33 37 40 41
28 29 31 32 34 34 34 35 33 36 35 35 44 36 37 35 36 33 32 32 34 34 37 36 38 37 36 38 40 41 44 41 35 33 33 35 35 36 34 33 36 39 40
28 30 34 35 35 36 36 37 34 35 45 40 38 40 39 34 32 36 36 36 34 35 38 40 38 35 34 33 39 42 41 42 38 34 34 34 35 35 33 33 34 37 38
29 33 36 37 37 39 39 36 39 35 36 36 36 41 36 35 36 36 36 35 36 38 38 38 39 37 37 38 41 45 45 43 41 38 37 36 37 39 35 35 35 35 36
33 35 36 38 37 34 31 35 33 34 32 33 36 37 40 38 37 36 36 36 36 38 38 38 40 41 42 42 44 47 47 48 45 43 39 37 37 37 35 34 35 36 35
35 37 35 33 35 30 32 32 36 38 37 39 39 39 38 36 36 35 35 35 35 36 38 40 43 46 47 47 48 48 50 52 48 46 41 39 37 35 34 34 35 34 34
34 32 33 33 34 32 32 36 35 37 36 37 38 36 34 33 33 35 35 35 36 38 41 43 46 48 48 50 51 53 52 53 49 48 42 39 37 36 35 34 33 31 33
34 33 33 33 34 33 32 32 33 33 34 35 33 33 33 33 33 35 37 39 41 42 44 47 50 51 49 45 47 54 54 52 48 46 43 38 35 36 35 31 30 29 31
33 33 32 32 32 31 31 30 31 33 33 33 33 33 35 37 37 39 42 45 46 47 49 50 52 52 51 47 45 48 51 49 46 44 38 38 34 34 33 30 29 28 29
30 30 30 30 30 31 30 30 30 31 32 32 32 34 36 37 40 43 47 51 54 55 54 54 53 52 50 50 44 42 42 42 42 40 35 35 32 33 32 28 28 28 29
29 29 28 28 28 31 31 29 30 32 31 32 34 36 37 41 45 49 53 56 60 59 59 58 57 50 47 49 45 41 37 37 35 33 30 32 31 31 30 25 26 26 28
Wind_Direction
179 209 216 226 244 264 291 258 233 255 316 345 22 21 14 360 345 359 348 338 335 335 334 336 332 330 327 323 322 319 315 310 306 302 300 299 296 292 288 283 278 274 272
185 219 232 234 251 282 274 243 232 248 291 318 335 342 350 350 345 339 338 330 328 322 325 328 327 327 326 320 318 318 316 313 309 304 302 300 297 293 288 285 283 282 279
206 222 231 243 261 268 253 245 251 265 288 302 304 328 328 334 340 338 334 333 329 324 326 329 325 322 320 319 316 314 314 315 312 308 305 303 301 298 295 290 287 283 280
204 221 233 249 255 254 253 251 255 263 276 283 296 315 325 323 326 329 319 317 320 323 322 321 321 318 316 316 314 314 313 313 310 307 305 303 303 303 302 302 300 296 292
214 224 243 248 252 248 250 253 258 267 274 287 301 310 312 312 322 324 325 323 322 320 318 318 315 310 309 309 308 308 309 309 308 306 304 303 302 300 300 301 301 301 300
217 230 243 251 248 253 253 258 266 270 282 291 298 301 301 306 313 319 326 327 317 312 310 311 311 309 307 304 305 306 307 307 305 302 301 301 301 301 302 301 300 299 299
225 231 244 250 250 260 261 262 269 279 281 287 291 291 298 309 318 313 320 324 316 315 309 303 304 305 305 306 307 306 306 304 301 298 298 299 299 299 299 298 298 298 297
237 246 255 259 258 262 263 268 274 274 279 282 284 288 296 305 309 309 314 313 308 310 306 304 302 301 301 305 306 306 309 305 300 298 296 296 297 298 298 298 297 296 294
250 252 257 265 268 271 273 273 273 277 278 278 279 282 287 289 297 306 310 302 301 301 298 297 300 305 305 304 303 302 304 304 302 300 297 296 297 297 297 296 295 295 295
251 255 260 267 274 276 275 273 272 272 274 279 278 278 279 283 292 309 301 301 304 305 306 303 300 305 309 308 305 304 305 303 302 298 298 298 297 297 297 297 297 298 297
259 265 266 268 271 273 278 277 268 264 265 268 276 279 280 282 290 297 285 288 294 303 304 304 310 310 306 303 299 300 303 305 302 298 300 299 298 299 300 301 300 299 298
263 272 268 277 280 278 279 286 285 282 287 282 271 266 270 279 293 293 297 303 295 294 295 296 299 300 300 296 297 299 300 302 297 298 300 299 300 300 300 300 300 299 297
281 279 271 274 287 284 285 295 295 287 287 284 284 279 279 280 281 290 294 299 292 292 284 279 284 288 291 295 297 299 299 301 298 298 301 299 300 302 302 302 303 301 300
283 283 270 270 294 305 296 294 295 295 297 291 293 286 277 295 288 285 288 289 288 288 287 287 282 283 287 291 294 295 299 303 304 302 302 303 303 303 303 304 303 305 305
282 278 280 293 299 295 293 297 298 303 307 301 298 283 278 298 301 286 286 291 292 296 296 292 285 280 276 280 286 289 293 299 303 303 304 303 303 303 302 302 303 307 308
276 283 288 294 297 293 292 291 299 288 297 287 301 284 302 290 288 288 292 295 298 299 299 296 289 283 280 283 283 284 290 297 303 304 308 308 308 304 302 305 308 310 312
275 285 289 293 294 294 292 289 289 299 281 291 303 296 298 288 292 293 295 295 296 297 293 292 290 289 288 287 284 285 291 300 302 307 307 306 308 304 301 306 310 313 313
282 285 287 290 291 290 289 288 289 295 289 275 303 300 296 289 293 291 293 298 298 297 294 294 293 294 292 291 296 293 293 297 302 305 307 309 306 304 301 305 311 314 315
282 283 285 287 288 286 287 293 292 292 280 305 292 301 288 293 293 296 298 298 300 298 293 288 292 291 292 288 289 293 296 302 304 305 306 311 312 306 303 303 312 315 318
284 287 288 290 289 291 287 291 291 288 296 295 290 290 288 291 294 295 296 298 297 293 286 283 285 286 286 289 284 288 290 296 301 303 306 306 303 302 300 304 311 317 321
289 292 292 292 292 290 288 278 283 284 282 283 288 290 290 294 296 298 298 299 296 290 284 282 284 286 286 285 283 286 285 292 292 299 299 300 302 303 299 300 307 315 320
291 291 292 292 293 291 284 287 289 292 292 288 289 292 296 299 301 302 301 300 297 292 288 285 285 283 284 282 282 280 279 280 287 296 297 298 300 300 298 297 306 315 317
296 295 293 291 291 292 290 290 289 290 290 292 295 298 301 303 303 301 300 298 296 293 289 289 287 287 287 285 282 275 276 280 283 289 292 295 298 298 297 298 304 310 314
293 293 293 294 292 290 288 289 291 294 295 300 304 305 304 303 305 302 301 301 300 297 294 287 283 283 285 285 279 273 273 277 279 289 291 293 294 296 297 298 304 308 315
289 290 289 288 288 289 289 292 296 297 299 300 303 303 304 305 306 306 304 301 299 296 292 287 284 282 281 280 280 277 272 275 281 288 289 291 295 295 295 298 305 309 315
287 287 287 287 288 286 291 297 299 298 301 301 302 305 306 306 307 306 303 300 298 298 293 289 285 280 276 276 276 276 272 274 285 287 291 288 292 294 294 298 304 309 314